Regional Weather Roundup
Issued by NWS Burlington, VT

Home | Current Version | Previous Version | Text Only | Print | Product List | Glossary On
Versions: 1 2 3 4 5 6 7 8 9 10 11 12 13 14 15 16 17 18 19 20 21 22 23 24 25 26 27 28 29 30 31 32 33 34 35 36 37 38 39 40 41 42 43 44 45 46 47 48 49 50
000
ASUS41 KBTV 280330
RWRBTV
VERMONT REGIONAL WEATHER ROUNDUP
NATIONAL WEATHER SERVICE BURLINGTON VT
1000 PM EST MON FEB 27 2017

NOTE: "FAIR" INDICATES FEW OR NO CLOUDS BELOW 12,000 FEET WITH NO
SIGNIFICANT WEATHER AND/OR OBSTRUCTIONS TO VISIBILITY.

* THESE REPORTS ARE NOT UNDER NWS QUALITY CONTROL AND/OR DO NOT
  REPORT WEATHER SUCH AS PRECIPITATION AND FOG.

VTZ001>019-280400-
_____VERMONT_____


CITY           SKY/WX    TMP DP  RH WIND       PRES   REMARKS
BURLINGTON     MOCLDY    41  26  55 SW3       30.28S
MONTPELIER     CLOUDY    41  24  51 CALM      30.29R
MORRISVILLE    MOCLDY    40  24  53 SW6       30.28R
ST. JOHNSBURY*   N/A     33  28  81 MISG      30.25S
LYNDONVILLE*   MOCLDY    36  25  65 CALM      30.26S
MIDDLEBURY*    FAIR      33  18  54 CALM      30.28F
RUTLAND*       CLOUDY    44  21  40 W6        30.29S
SPRINGFIELD    CLOUDY    33  26  75 CALM      30.30S
HIGHGATE*      MOCLDY    29  27  90 CALM      30.28S
NEWPORT*       FAIR      31  26  80 CALM      30.26R
BENNINGTON     CLEAR     42  18  37 SW7       30.30F
SUTTON*          N/A     36 N/A N/A MISG        N/A
ISLAND POND*     N/A     37 N/A N/A W5          N/A
GALLUP MILLS*    N/A     34 N/A N/A MISG        N/A
UNION VILLAGE*   N/A     30 N/A N/A MISG        N/A
MT. MANSFIELD*   N/A     25 N/A N/A W33G49      N/A  WCI   7

_____LAKE CHAMPLAIN_____


CITY           SKY/WX    TMP DP  RH WIND       PRES   REMARKS
BURTON ISLAND*   N/A     37  30  75 SW8         N/A  WCI  31
COLCHESTER RF*   N/A     43  30  61 SW8         N/A
DIAMOND ISL*     N/A     43  28  56 E7          N/A

$$

NYZ007-026>031-035-052-083-087-280400-
_____NORTHERN NEW YORK_____


CITY           SKY/WX    TMP DP  RH WIND       PRES   REMARKS
PLATTSBURGH    CLEAR     38  26  62 SW5       30.28R
SARANAC LAKE   CLEAR     29  27  92 SW5       30.23S WCI  24
MASSENA        CLEAR     31  24  75 SW7       30.30R WCI  24
OGDENSBURG*    FAIR      27  25  91 CALM      30.29S
POTSDAM*       CLEAR     30  28  93 CALM      30.29S
STARK FALLS*     N/A     34 N/A N/A S3          N/A
WATERTOWN      CLOUDY    36  30  79 CALM      30.29R
FT DRUM        CLOUDY    36  27  70 S3        30.27R
ALBANY         PTCLDY    35  19  52 SW7       30.33S WCI  29
GLENS FALLS    CLOUDY    37  24  59 SW6       30.30S

$$
NHZ002-005-011-280400-
_____NEW HAMPSHIRE_____


CITY           SKY/WX    TMP DP  RH WIND       PRES   REMARKS
LEBANON        CLEAR     34  26  72 CALM      30.28R
KEENE          CLEAR     33  22  63 CALM      30.32S
MT WASHINGTON  FOG       16  16 100 W67         N/A  VSB 1/16WCI -11
PLYMOUTH       FAIR      28  26  89 CALM      30.28S
WHITEFIELD     MOCLDY    31  24  75 CALM      30.25R

$$

_____REGIONAL QUEBEC LOCATIONS_____


CITY           SKY/WX    TMP DP  RH WIND       PRES   REMARKS
MONTREAL       CLEAR     32  25  74 SW6       30.28R WCI  26
QUEBEC CITY    CLEAR     25  12  58 W5        30.26R WCI  19
SHERBROOKE     CLOUDY    34  27  75 SW5       30.24S WCI  30

_____REGIONAL ONTARIO LOCATIONS_____


CITY           SKY/WX    TMP DP  RH WIND       PRES   REMARKS
OTTAWA         PTCLDY    30  18  59 SW5       30.28R WCI  25

______KEY______
VSB  - VISIBILITY IN MILES
WCI  - WIND CHILL INDEX
HX   - HEAT INDEX
$$
NNNN



USA.gov is the U.S. government's official web portal to all federal, state and local government web resources and services.